Location: Wingville
(42.9917°N, 90.4915°W)
Time: 06:45:23
(UTC+00:00)

YUBILEINY - Pass Details

Date: 09 July 2022
Orbit: 1478 x 1509 km, 82.5° (Epoch: 07 August)

Event Time Altitude Azimuth Distance (km) Brightness Sun altitude
Rises 07:00:24 0° 2° (N) 4,645 ? -23.5°
Reaches altitude 10° 07:06:23 10° 33° (NNE) 3,651 ? -23.3°
Maximum altitude 07:09:09 12° 52° (NE) 3,515 ? -23.1°
Drops below altitude 10° 07:11:54 10° 71° (ENE) 3,639 ? -23.0°
Sets 07:17:46 0° 102° (ESE) 4,606 ? -22.7°
